Bowling Green, KY

1:35 PM CDT on October 22, 2017 (GMT -0500)
Bowling Green-Warren County Regional

Weather History for KBWG - July, 2013

Change the Weather History Date:

Thursday, July 11, 2013

  Actual Average Record
Temperature  
Mean Temperature 79 °F 79 °F  
Max Temperature 87 °F 89 °F 108 °F (1901)
Min Temperature 70 °F 68 °F 49 °F (1963)
Degree Days  
Heating Degree Days 0 0  
Month to date heating degree days 0 0  
Since 1 June heating degree days 0 5  
Since 1 July heating degree days 0 0  
Cooling Degree Days 14 14  
Month to date cooling degree days 120 149  
Year to date cooling degree days 667 607  
Since 1 June cooling degree days 454 454  
Growing Degree Days 28 (Base 50)    
Moisture  
Dew Point 70 °F    
Average Humidity 74    
Maximum Humidity 93    
Minimum Humidity 55    
Precipitation  
Precipitation 0.00 in 0.14 in 1.75 in (1941)
Month to date precipitation 6.41 1.58  
Year to date precipitation 33.31 27.71  
Snow  
Snow 0.00 in 0.00 in 0.00 in ()
Month to date snowfall 0.0 0.0  
Since 1 June snowfall 0.0 0.0  
Since 1 July snowfall 0.0 0.0  
Snow Depth 0.00 in    
Sea Level Pressure  
Sea Level Pressure 29.96 in    
Wind  
Wind Speed 4 mph (NNE)    
Max Wind Speed 13 mph    
Max Gust Speed 18 mph    
Visibility 7 miles    
Events Fog , Thunderstorm    
T = Trace of Precipitation, MM = Missing Value Source: NWS Daily Summary

Daily Weather History Graph

Daily Weather History Graph

Search for Another Location

Airport or City:

Trip Planner

Search our weather history database for the weather conditions in past years. The results will help you decide how hot, cold, wet, or windy it might be!

Date:

Astronomy

Jul. 11, 2013 Rise Set
Actual Time 5:35 AM CDT 8:06 PM CDT
Civil Twilight 5:05 AM CDT 8:36 PM CDT
Nautical Twilight 4:27 AM CDT 9:14 PM CDT
Astronomical Twilight 3:46 AM CDT 9:55 PM CDT
Moon 8:47 AM CDT (7/11) 9:53 PM CDT (7/11)
Length of Visible Light 15h 31m
Length of Day
14h 31m
Waxing Crescent, 11% of the Moon is Illuminated
Jul 11
Waxing Crescent
Jul 15
First Quarter
Jul 22
Full
Jul 29
Last Quarter
Aug 6
New

Hourly Weather History & Observations

Time (CDT) Temp. Heat Index Dew Point Humidity Pressure Visibility Wind Dir Wind Speed Gust Speed Precip Events Conditions
12:19 AM 73.4 °F - 71.6 °F 94% 29.97 in 10.0 mi SSW 4.6 mph - N/A   Scattered Clouds
12:28 AM 73.4 °F - 71.6 °F 94% 29.97 in 10.0 mi SSW 5.8 mph - N/A   Mostly Cloudy
12:53 AM 73.9 °F - 71.1 °F 91% 29.95 in 10.0 mi SSW 6.9 mph - N/A   Overcast
1:53 AM 73.9 °F - 71.1 °F 91% 29.95 in 10.0 mi SW 4.6 mph - N/A   Overcast
2:23 AM 73.4 °F - 69.8 °F 88% 29.96 in 9.0 mi Calm Calm - N/A   Partly Cloudy
2:53 AM 73.0 °F - 70.0 °F 90% 29.94 in 7.0 mi Calm Calm - N/A   Partly Cloudy
3:26 AM 73.4 °F - 69.8 °F 88% 29.95 in 2.5 mi Calm Calm - N/A   Mostly Cloudy
3:36 AM 71.6 °F - 69.8 °F 94% 29.95 in 1.8 mi Calm Calm - N/A   Mostly Cloudy
3:43 AM 71.6 °F - 69.8 °F 94% 29.95 in 3.0 mi Calm Calm - N/A   Mostly Cloudy
3:51 AM 71.6 °F - 69.8 °F 94% 29.95 in 2.0 mi Calm Calm - N/A   Overcast
3:53 AM 72.0 °F - 69.1 °F 91% 29.94 in 2.0 mi Calm Calm - N/A   Overcast
4:04 AM 71.6 °F - 69.8 °F 94% 29.95 in 1.2 mi Calm Calm - N/A   Overcast
4:11 AM 71.6 °F - 69.8 °F 94% 29.95 in 2.0 mi Calm Calm - N/A   Overcast
4:20 AM 71.6 °F - 69.8 °F 94% 29.95 in 2.0 mi Calm Calm - N/A   Overcast
4:30 AM 71.6 °F - 69.8 °F 94% 29.96 in 1.2 mi Calm Calm - N/A   Overcast
4:36 AM 71.6 °F - 69.8 °F 94% 29.96 in 0.5 mi Calm Calm - N/A Fog Fog
4:43 AM 71.6 °F - 71.6 °F 100% 29.96 in 0.5 mi Calm Calm - N/A Fog Fog
4:53 AM 72.0 °F - 70.0 °F 93% 29.95 in 0.8 mi Calm Calm - N/A   Mist
5:06 AM 73.4 °F - 69.8 °F 88% 29.96 in 1.5 mi SE 3.5 mph - N/A   Overcast
5:15 AM 71.6 °F - 69.8 °F 94% 29.97 in 1.0 mi SSE 3.5 mph - N/A   Mist
5:21 AM 71.6 °F - 69.8 °F 94% 29.97 in 0.5 mi SE 3.5 mph - N/A Fog Fog
5:53 AM 72.0 °F - 70.0 °F 93% 29.96 in 0.2 mi Calm Calm - N/A Fog Fog
6:53 AM 73.0 °F - 71.1 °F 93% 29.96 in 0.5 mi Calm Calm - N/A Fog Fog
7:19 AM 73.4 °F - 71.6 °F 94% 29.97 in 1.0 mi Calm Calm - N/A   Overcast
7:25 AM 73.4 °F - 71.6 °F 94% 29.97 in 2.0 mi Calm Calm - N/A   Overcast
7:33 AM 73.4 °F - 71.6 °F 94% 29.98 in 6.0 mi Calm Calm - N/A   Overcast
7:53 AM 73.9 °F - 71.1 °F 91% 29.97 in 10.0 mi Calm Calm - N/A   Overcast
8:32 AM 75.2 °F - 71.6 °F 89% 29.98 in 10.0 mi Calm Calm - N/A   Scattered Clouds
8:53 AM 79.0 °F - 71.1 °F 77% 29.97 in 10.0 mi Calm Calm - N/A   Partly Cloudy
9:53 AM 81.0 °F 85.8 °F 73.0 °F 77% 29.97 in 10.0 mi Calm Calm - N/A   Mostly Cloudy
10:23 AM 82.4 °F 88.2 °F 73.4 °F 74% 29.99 in 10.0 mi NE 4.6 mph - N/A   Mostly Cloudy
10:43 AM 84.2 °F 90.9 °F 73.4 °F 70% 29.99 in 10.0 mi Variable 3.5 mph - N/A   Scattered Clouds
10:53 AM 84.9 °F 92.1 °F 73.9 °F 69% 29.97 in 10.0 mi Calm Calm - N/A   Scattered Clouds
11:18 AM 82.4 °F 87.2 °F 71.6 °F 70% 29.98 in 10.0 mi Calm Calm - N/A   Mostly Cloudy
11:42 AM 84.2 °F 89.6 °F 71.6 °F 66% 29.97 in 10.0 mi SE 6.9 mph - N/A   Overcast
11:50 AM 84.2 °F 89.6 °F 71.6 °F 66% 29.97 in 10.0 mi Variable 3.5 mph - N/A   Mostly Cloudy
11:53 AM 84.9 °F 90.7 °F 72.0 °F 65% 29.95 in 10.0 mi SSE 4.6 mph - N/A   Mostly Cloudy
12:09 PM 84.2 °F 88.4 °F 69.8 °F 62% 29.97 in 10.0 mi Calm Calm - N/A Thunderstorm Overcast
12:53 PM 80.1 °F 83.6 °F 71.1 °F 74% 29.96 in 10.0 mi NNE 8.1 mph - N/A Thunderstorm Thunderstorm
1:02 PM 82.4 °F 87.2 °F 71.6 °F 70% 29.97 in 10.0 mi NNE 6.9 mph - N/A Thunderstorm Thunderstorm
1:44 PM 84.2 °F 90.9 °F 73.4 °F 70% 29.97 in 10.0 mi NNE 8.1 mph - N/A   Mostly Cloudy
1:53 PM 82.9 °F 89.4 °F 73.9 °F 74% 29.95 in 10.0 mi NNE 5.8 mph - N/A   Mostly Cloudy
2:24 PM 84.2 °F 90.9 °F 73.4 °F 70% 29.96 in 10.0 mi North 5.8 mph - N/A   Scattered Clouds
2:33 PM 84.2 °F 90.9 °F 73.4 °F 70% 29.96 in 10.0 mi NNE 8.1 mph - N/A   Mostly Cloudy
2:51 PM 84.2 °F 89.6 °F 71.6 °F 66% 29.96 in 10.0 mi NNW 6.9 mph 16.1 mph N/A   Mostly Cloudy
2:53 PM 84.0 °F 89.6 °F 72.0 °F 67% 29.94 in 10.0 mi North 8.1 mph - N/A   Scattered Clouds
3:33 PM 84.2 °F 89.6 °F 71.6 °F 66% 29.96 in 10.0 mi NNE 6.9 mph - N/A   Mostly Cloudy
3:53 PM 84.9 °F 89.4 °F 70.0 °F 61% 29.94 in 10.0 mi NNW 5.8 mph - N/A   Scattered Clouds
4:53 PM 84.9 °F 87.6 °F 66.9 °F 55% 29.94 in 10.0 mi North 10.4 mph - N/A   Partly Cloudy
5:53 PM 84.9 °F 87.1 °F 66.0 °F 53% 29.93 in 10.0 mi North 8.1 mph - N/A   Mostly Cloudy
6:53 PM 82.0 °F 83.4 °F 64.0 °F 54% 29.93 in 10.0 mi North 8.1 mph - N/A   Clear
7:53 PM 79.0 °F - 64.0 °F 60% 29.94 in 10.0 mi North 4.6 mph - N/A   Clear
8:53 PM 75.9 °F - 62.1 °F 62% 29.96 in 10.0 mi North 3.5 mph - N/A   Clear
9:53 PM 73.9 °F - 61.0 °F 64% 29.97 in 10.0 mi Calm Calm - N/A   Clear
10:53 PM 73.0 °F - 61.0 °F 66% 29.97 in 10.0 mi North 3.5 mph - N/A   Clear
11:53 PM 71.1 °F - 61.0 °F 70% 29.98 in 10.0 mi North 4.6 mph - N/A   Clear